Weather observations for the past three days for
Camarillo, Camarillo Airport
| Date | Time (pdt) | Wind (kph) | Vis. (km) | Weather | Sky Cond. | Temperature (ºC) | Relative Humidity | Wind Chill (°C) | Heat Index (°C) | Pressure | Precipitation (cm) | ||||||
|---|---|---|---|---|---|---|---|---|---|---|---|---|---|---|---|---|---|
| Air | Dwpt | 6 hour | altimeter (cm) | sea level (mb) | 1 hr | 3 hr | 6 hr | ||||||||||
| Max. | Min. | ||||||||||||||||
| 08 | 16:55 | W 13 | 16.09 | Overcast | OVC015 | 17.8 | 13.3 | 20.6 | 17.2 | 75% | 76.02 | 1014.3 | |||||
| 08 | 15:55 | SW 15 | 16.09 | Overcast | OVC017 | 18.3 | 13.3 | 73% | 76.07 | 1014.9 | |||||||
| 08 | 14:55 | W 15 | 16.09 | Mostly Cloudy | BKN019 | 20 | 13.9 | 68% | 76.1 | 1015.3 | |||||||
| 08 | 13:55 | W 13 | 14.48 | Overcast | OVC016 | 18.9 | 13.9 | 73% | 76.15 | 1016.1 | |||||||
| 08 | 12:55 | W 15 | 11.27 | Overcast | OVC016 | 18.3 | 13.9 | 76% | 76.2 | 1016.7 | |||||||
| 08 | 11:55 | W 11 | 12.87 | Overcast | OVC016 | 17.8 | 13.3 | 75% | 76.23 | 1017.0 | |||||||
| 08 | 10:55 | SW 6 | 12.87 | Overcast | OVC015 | 17.2 | 13.3 | 17.2 | 12.2 | 78% | 76.25 | 1017.5 | |||||
| 08 | 09:55 | Calm | 11.27 | Overcast | OVC013 | 16.1 | 12.8 | 81% | 76.25 | 1017.5 | |||||||
| 08 | 08:55 | Calm | 11.27 | Overcast | OVC012 | 15.6 | 12.8 | 84% | 76.25 | 1017.4 | |||||||
| 08 | 07:55 | E 6 | 11.27 | Overcast | OVC010 | 15 | 12.2 | 83% | 76.25 | 1017.4 | |||||||
| 08 | 06:55 | Calm | 11.27 | Overcast | OVC011 | 13.9 | 11.7 | 87% | 76.23 | 1017.2 | |||||||
| 08 | 05:55 | SE 9 | 11.27 | Fair | CLR | 12.2 | 10 | 87% | 76.2 | 1016.7 | |||||||
| 08 | 04:55 | Calm | 11.27 | Fair | CLR | 13.3 | 12.2 | 14.4 | 12.8 | 93% | 76.17 | 1016.3 | |||||
| 08 | 03:55 | NE 6 | 12.87 | Fair | CLR | 13.3 | 11.7 | 90% | 76.15 | 1016.1 | |||||||
| 08 | 02:55 | Calm | 12.87 | Fair | CLR | 13.3 | 11.7 | 90% | 76.15 | 1016.0 | |||||||
| 08 | 01:55 | Calm | 12.87 | Fair | CLR | 13.9 | 11.7 | 87% | 76.15 | 1016.0 | |||||||
| 08 | 00:55 | NW 6 | 12.87 | Fair | CLR | 13.3 | 12.2 | 93% | 76.17 | 1016.3 | |||||||
| 07 | 23:55 | Calm | 11.27 | Fair | CLR | 14.4 | 12.8 | 90% | 76.17 | 1016.3 | |||||||
| 07 | 22:55 | S 6 | 11.27 | Fair | CLR | 13.9 | 12.2 | 20 | 13.9 | 90% | 76.15 | 1016.0 | |||||
| 07 | 21:55 | Calm | 12.87 | Fair | CLR | 15 | 12.8 | 87% | 76.12 | 1015.6 | |||||||
| 07 | 20:55 | SW 7 | 12.87 | Fair | CLR | 15 | 12.8 | 87% | 76.1 | 1015.4 | |||||||
| 07 | 19:55 | SW 9 | 12.87 | Fair | CLR | 16.1 | 12.8 | 81% | 76.07 | 1015.0 | |||||||
| 07 | 18:55 | SW 9 | 14.48 | Fair | CLR | 16.7 | 12.8 | 78% | 76.05 | 1014.6 | |||||||
| 07 | 17:55 | W 13 | 16.09 | Fair | CLR | 18.3 | 12.8 | 70% | 76.05 | 1014.6 | |||||||
| 07 | 16:55 | W 19 | 16.09 | Fair | CLR | 20 | 12.2 | 22.2 | 19.4 | 61% | 76.05 | 1014.7 | |||||
| 07 | 15:55 | W 15 | 16.09 | Fair | CLR | 21.1 | 12.2 | 57% | 76.07 | 1014.8 | |||||||
| 07 | 14:55 | W 19 | 16.09 | Fair | CLR | 21.1 | 12.2 | 57% | 76.12 | 1015.5 | |||||||
| 07 | 13:55 | W 17 | 16.09 | Fair | CLR | 21.1 | 12.2 | 57% | 76.17 | 1016.2 | |||||||
| 07 | 12:55 | SW 15 G 31 | 16.09 | Fair | CLR | 21.7 | 12.8 | 57% | 76.2 | 1016.5 | |||||||
| 07 | 11:55 | SW 15 | 16.09 | Fair | CLR | 21.1 | 13.3 | 61% | 76.2 | 1016.7 | |||||||
| 07 | 10:55 | SW 13 | 16.09 | Fair | CLR | 20.6 | 13.3 | 20.6 | 10.6 | 63% | 76.23 | 1016.9 | |||||
| 07 | 09:55 | Calm | 16.09 | Fair | CLR | 18.9 | 12.2 | 65% | 76.23 | 1017.0 | |||||||
| 07 | 08:55 | Calm | 16.09 | Fair | CLR | 17.2 | 12.8 | 76% | 76.25 | 1017.3 | |||||||
| 07 | 07:55 | Calm | 16.09 | Fair | CLR | 15 | 11.7 | 81% | 76.25 | 1017.3 | |||||||
| 07 | 06:55 | NE 6 | 16.09 | Fair | CLR | 12.8 | 10.6 | 87% | 76.23 | 1017.0 | |||||||
| 07 | 05:55 | Calm | 14.48 | Fair | CLR | 11.7 | 10.6 | 93% | 76.2 | 1016.6 | |||||||
| 07 | 04:55 | E 6 | 14.48 | Fair | CLR | 12.2 | 11.1 | 13.9 | 11.7 | 93% | 76.2 | 1016.6 | |||||
| 07 | 03:55 | Calm | 14.48 | Fair | CLR | 12.2 | 11.1 | 93% | 76.2 | 1016.7 | |||||||
| 07 | 02:55 | Calm | 16.09 | Fair | CLR | 12.2 | 10.6 | 90% | 76.23 | 1017.1 | |||||||
| 07 | 01:55 | Calm | 16.09 | Fair | CLR | 12.8 | 11.7 | 93% | 76.25 | 1017.5 | |||||||
| 07 | 00:55 | Calm | 16.09 | Fair | CLR | 13.9 | 12.2 | 90% | 76.28 | 1017.6 | |||||||
| 06 | 23:55 | Calm | 16.09 | Fair | CLR | 13.9 | 12.2 | 90% | 76.28 | 1017.8 | |||||||
| 06 | 22:55 | Calm | 16.09 | Fair | CLR | 13.9 | 12.2 | 20 | 13.9 | 90% | 76.3 | 1018.0 | |||||
| 06 | 21:55 | S 6 | 16.09 | Fair | CLR | 14.4 | 12.2 | 87% | 76.28 | 1017.8 | |||||||
| 06 | 20:55 | Calm | 16.09 | Fair | CLR | 15.6 | 12.8 | 84% | 76.28 | 1017.6 | |||||||
| 06 | 19:55 | W 9 | 16.09 | Fair | CLR | 16.1 | 12.8 | 81% | 76.23 | 1016.9 | |||||||
| 06 | 18:55 | SW 13 | 16.09 | Fair | CLR | 17.8 | 12.8 | 73% | 76.2 | 1016.7 | |||||||
| 06 | 17:55 | SW 11 | 16.09 | Fair | CLR | 18.9 | 11.1 | 61% | 76.2 | 1016.7 | |||||||
| 06 | 16:55 | W 15 | 16.09 | Fair | CLR | 19.4 | 11.1 | 21.1 | 18.9 | 59% | 76.2 | 1016.8 | |||||
| 06 | 15:55 | SW 17 | 16.09 | Fair | CLR | 19.4 | 11.1 | 59% | 76.23 | 1017.1 | |||||||
| 06 | 14:55 | W 17 | 16.09 | Fair | CLR | 20.6 | 11.7 | 57% | 76.3 | 1017.9 | |||||||
| 06 | 13:55 | SW 19 | 16.09 | Fair | CLR | 20 | 11.1 | 57% | 76.33 | 1018.3 | |||||||
| 06 | 12:55 | W 17 G 35 | 16.09 | Fair | CLR | 19.4 | 11.7 | 61% | 76.35 | 1018.7 | |||||||
| 06 | 11:55 | SW 15 | 16.09 | Fair | CLR | 18.9 | 11.7 | 63% | 76.38 | 1018.9 | |||||||
| 06 | 10:55 | SW 15 G 26 | 16.09 | A Few Clouds | FEW027 | 19.4 | 12.2 | 19.4 | 9.4 | 63% | 76.38 | 1019.2 | |||||
| 06 | 09:55 | Vrbl 7 | 16.09 | Fair | CLR | 18.3 | 10.6 | 61% | 76.38 | 1019.2 | |||||||
| 06 | 08:55 | Calm | 16.09 | Fair | CLR | 16.1 | 10 | 67% | 76.38 | 1019.2 | |||||||
| 06 | 07:55 | Calm | 16.09 | Fair | CLR | 14.4 | 10 | 75% | 76.38 | 1019.2 | |||||||
| 06 | 06:55 | E 7 | 16.09 | Fair | CLR | 11.7 | 8.9 | 83% | 76.35 | 1018.7 | |||||||
| 06 | 05:55 | Calm | 16.09 | Fair | CLR | 9.4 | 8.3 | 93% | 76.33 | 1018.6 | |||||||
| 06 | 04:55 | E 6 | 16.09 | Fair | CLR | 11.7 | 8.9 | 13.9 | 11.1 | 83% | 76.28 | 1017.9 | |||||
| 06 | 03:55 | NE 9 | 16.09 | Fair | CLR | 11.7 | 8.9 | 83% | 76.28 | 1017.8 | |||||||
| 06 | 02:55 | E 15 | 16.09 | Fair | CLR | 12.2 | 9.4 | 83% | 76.28 | 1017.8 | |||||||
| 06 | 01:55 | E 9 | 16.09 | Fair | CLR | 12.2 | 10 | 87% | 76.33 | 1018.2 | |||||||
| 06 | 00:55 | E 9 | 16.09 | Fair | CLR | 12.8 | 10.6 | 87% | 76.33 | 1018.2 | |||||||
| 05 | 23:55 | SE 9 | 16.09 | Fair | CLR | 13.3 | 10.6 | 84% | 76.3 | 1017.9 | |||||||
| 05 | 22:55 | E 9 | 16.09 | Fair | CLR | 13.9 | 10.6 | 18.3 | 12.8 | 81% | 76.25 | 1017.4 | |||||
| 05 | 21:55 | Calm | 16.09 | Fair | CLR | 14.4 | 11.7 | 84% | 76.23 | 1016.9 | |||||||
| 05 | 20:55 | Calm | 16.09 | Fair | CLR | 14.4 | 11.1 | 81% | 76.17 | 1016.3 | |||||||
| 05 | 19:55 | S 11 | 16.09 | Fair | CLR | 15 | 11.1 | 78% | 76.1 | 1015.4 | |||||||
| 05 | 18:55 | SW 13 | 16.09 | Fair | CLR | 17.2 | 10.6 | 65% | 76.05 | 1014.7 | |||||||
| 05 | 17:55 | SW 17 | 16.09 | Mostly Cloudy | BKN075 | 17.2 | 10.6 | 65% | 76.05 | 1014.8 | |||||||
| Date | Time (pdt) | Wind (kph) | Vis. (km) | Weather | Sky Cond. | Air | Dwpt | Max. | Min. | Relative Humidity | Wind Chill (°C) | Heat Index (°C) | altimeter (cm) | sea level (mb) | 1 hr | 3 hr | 6 hr |
| 6 hour | |||||||||||||||||
| Temperature (ºC) | Pressure | Precipitation (cm) | |||||||||||||||